Location: Trescasas
(40.9644°N, 4.0359°W)
Time: 23:43:56
(UTC+00:00)

Daily predictions for brighter satellites

Satellite Brightness Start Highest point End
(mag) Time Altitude Azimuth Time Altitude Azimuth Time Altitude Azimuth
CBERS-1 4.0 17:09:31 10° SSE 17:14:37 77° ENE 17:19:44 10° N
SL-08 ROCKET BODY 4.5 17:09:01 10° N 17:14:53 57° E 17:20:48 10° SSE
NOSS 3-2 (C) 3.2 17:11:20 10° SSW 17:16:04 59° ESE 17:21:37 10° NE
NOSS 3-2 (A) 3.7 17:11:24 10° SW 17:16:11 52° NW 17:21:52 10° NNE
IGS 5A 3.3 17:14:06 10° SSE 17:18:02 74° ENE 17:22:00 10° N
CORIOLIS 4.3 17:12:58 10° SE 17:18:06 52° ENE 17:23:16 10° N
SL-16 R/B 2.8 17:12:28 10° NNE 17:18:41 76° WNW 17:24:51 10° SSW
Cosmos 2263 Rocket 3.9 17:16:13 10° NNE 17:18:43 13° NE 17:21:15 10° ENE
MOS 1 Rocket 4.2 17:18:11 10° SE 17:22:19 29° ENE 17:26:40 10° N
BREEZE M DEB (TANK) 2.0 17:20:02 10° WSW 17:23:16 66° NNW 17:25:18 10° NE
Cosmos 1626 Rocket 3.5 17:20:04 10° N 17:24:24 80° E 17:28:41 10° S
Cosmos 1933 4.2 17:22:38 10° SSE 17:25:52 26° E 17:29:06 10° NNE
GEOS 3 Rocket 4.0 17:21:27 10° NNE 17:26:47 66° NW 17:32:05 10° SW
SJ-12 4.4 17:24:49 10° SE 17:28:11 32° ENE 17:31:36 10° N
Cosmos 1606 Rocket 4.4 17:25:29 10° SSE 17:29:18 30° E 17:33:09 10° NNE
Cosmos 2360 4.3 17:23:50 10° SSW 17:29:33 89° WNW 17:35:19 10° NNE
Cosmos 2084 Rocket 4.5 17:27:48 10° NNW 17:31:19 25° NE 17:34:48 10° E
Thor Agena Rocket 3.5 17:26:09 10° SSE 17:31:21 79° ENE 17:36:33 10° NNW
Cosmos 2227 Rocket 3.1 17:27:27 10° N 17:32:05 26° NE 17:36:43 10° ESE
BlueWalker 3 1.7 17:28:49 10° NW 17:32:27 66° NE 17:36:02 10° ESE
Meteor 1-28 Rocket 4.0 17:31:49 10° N 17:35:02 45° WNW 17:38:13 10° SSW
Cosmos 1484 Rocket 3.8 17:32:02 10° S 17:35:25 46° W 17:38:49 10° NNW
Cosmos 1544 Rocket 4.1 17:33:57 10° SSW 17:38:17 64° W 17:42:41 10° N
Cosmos 1503 Rocket 4.0 17:34:06 10° S 17:39:20 72° ESE 17:44:32 10° NNE
Cosmos 724 4.4 17:34:38 10° NNW 17:40:35 57° NE 17:46:21 10° SE
COSMO-SKYMED 1 4.0 17:39:14 13° ENE 17:41:12 17° E 17:43:51 10° SE
BREEZE-M DEB (TANK) 4.4 17:39:18 10° NW 17:42:21 31° NNE 17:48:33 13° ENE
IRS-1C 4.1 17:37:59 10° SSE 17:43:13 63° ENE 17:48:29 10° N
Cosmos 405 Rocket 3.9 17:41:20 10° NNW 17:44:22 37° W 17:47:20 10° SSW
Cosmos 1697 Rocket 2.8 17:39:17 10° S 17:44:43 56° ESE 17:50:12 10° NNE
Cosmos 1354 Rocket 4.1 17:42:27 10° S 17:47:36 58° ESE 17:52:46 10° NNE
Cosmos 1461 2.9 17:46:40 10° SW 17:50:30 69° WNW 17:54:18 11° NNE
Okean 1-7 Rocket 3.6 17:47:10 10° N 17:51:29 54° E 17:55:44 10° SSE
IRIDIUM 104 4.3 17:47:55 10° N 17:53:10 80° E 17:58:23 10° S
Cosmos 1726 Rocket 4.1 17:50:07 10° SSE 17:54:28 42° E 17:58:51 10° NNE
Cosmos 1777 Rocket 4.4 17:53:13 10° SSW 17:58:26 65° WNW 18:03:40 10° NNE
Gbstr 26 Del rocket 2.7 17:56:05 10° SW 18:00:16 82° NW 18:02:38 22° NE
IRIDIUM 114 4.4 17:57:03 10° N 18:02:18 85° W 18:07:31 10° S
Cosmos 1655 Rocket 4.2 17:56:44 10° N 18:02:41 44° ENE 18:08:34 10° SSE
Cosmos 1602 Rocket 3.7 17:58:26 10° NNW 18:02:49 74° W 18:07:07 10° S
SKYMED 2 3.8 17:59:43 10° NNE 18:03:55 46° E 18:08:05 10° S
Meteor 1-20 Rocket 4.1 17:59:58 10° N 18:05:28 88° W 18:10:56 10° S
CENTAUR R/B 4.5 18:01:44 10° WNW 18:05:58 19° NNW 18:10:49 10° NNE
SMAP 3.8 18:01:35 10° S 18:06:08 57° W 18:10:44 10° NNW
SAR-Lupe-4 3.8 18:04:20 10° S 18:07:52 69° WSW 18:11:25 10° NNW
ERS-1 4.4 18:03:15 10° SSE 18:08:18 88° ENE 18:13:18 10° NNW
YAOGAN 1 3.2 18:04:43 10° SE 18:08:27 30° ENE 18:12:11 10° N
NOSS 2-3 (C) 3.2 18:08:08 10° SSW 18:11:34 50° ESE 18:12:45 33° ENE
Landsat 7 4.2 18:06:59 10° S 18:11:36 66° W 18:16:14 10° NNW
USA 290 3.3 18:12:31 10° NNW 18:15:39 46° WSW 18:18:46 10° S
USA 238 DEB 3.6 18:10:19 10° SSW 18:16:04 52° ESE 18:19:57 23° NE
USA 238 3.6 18:10:25 10° S 18:16:11 51° ESE 18:20:02 23° NE
Cosmos 1867 3.5 18:14:52 10° NNW 18:20:18 64° NE 18:25:40 10° SE
CZ-2D R/B 4.2 18:19:08 10° S 18:22:04 39° W 18:25:03 10° NNW
ATLAS CENTAUR R/B 2.7 18:19:25 10° NW 18:22:16 30° WSW 18:25:01 10° S
Cosmos 372 Rocket 4.3 18:19:43 10° S 18:24:35 43° ESE 18:26:26 31° NE
Cosmos-2242 3.4 18:21:10 10° SSE 18:25:02 36° E 18:25:05 36° E
Cosmos 2297 Rocket 3.0 18:19:40 10° NNW 18:25:12 55° WSW 18:30:41 10° S
Aureole 1 Rocket 3.4 18:21:51 10° S 18:25:44 46° ESE 18:27:16 33° NE
Cosmos 1953 Rocket 3.6 18:21:27 10° N 18:25:49 53° E 18:30:09 10° SSE
IRS-P3 4.5 18:27:45 10° S 18:33:02 67° WSW 18:38:20 10° NNW
ARIANE 5 R/B 3.8 18:29:14 10° S 18:33:59 43° W 18:38:50 10° NNW
Cosmos 990 Rocket 4.4 18:30:10 10° SSW 18:35:12 61° WNW 18:39:47 13° NNE
Cosmos 1825 Rocket 3.9 18:32:14 10° NNW 18:36:33 65° W 18:40:48 10° S
CZ-4C R/B 3.1 18:29:44 10° NW 18:37:07 87° WSW 18:46:04 10° SSE
Cosmos 1607 4.4 18:30:59 10° NW 18:37:08 62° WSW 18:43:19 10° SSE
NOAA 6 4.2 18:33:52 10° SE 18:38:44 47° ENE 18:43:37 10° N
BREEZE-M DEB (TANK) 4.2 18:30:13 10° SW 18:38:57 43° SE 18:40:12 36° ESE
USA 81 4.0 18:34:22 10° N 18:39:35 62° E 18:44:47 10° SSE
Cosmos 2219 3.9 18:37:04 10° N 18:41:34 34° NE 18:41:34 34° NE
SPOT 1/Viking Rocket 3.7 18:38:54 10° S 18:44:05 77° WSW 18:49:19 10° NNW
Helios 1A Rocket 3.3 18:45:32 38° S 18:45:32 38° S 18:47:46 10° S
NOSS 2-3 (E) 3.9 18:41:44 10° SW 18:45:18 48° NW 18:46:11 38° N
Cosmos 1980 Rocket 2.1 18:41:33 10° SSW 18:47:13 82° ESE 18:49:48 34° NNE
NOSS 2-3 (D) 3.8 18:43:36 10° SW 18:47:14 50° NW 18:47:59 42° NNW
Meteor 1-5 Rocket 4.2 18:42:51 10° NNW 18:48:12 77° W 18:53:41 10° S
Cosmos 2058 Rocket 2.9 18:46:23 10° S 18:50:51 83° E 18:51:55 52° NNE
Cosmos 2369 3.8 18:50:00 10° S 18:55:31 53° ESE 18:55:44 52° E
Nadezhda 2 Rocket 4.4 18:50:59 10° N 18:57:01 58° E 19:02:59 10° SSE
Cosmos 2263 Rocket 2.0 18:57:56 10° NNW 19:03:38 75° ENE 19:04:58 53° SE
Cosmos 1553 Rocket 3.8 18:57:46 10° S 19:03:51 73° E 19:06:49 33° NNE
Cosmos 1076 Rocket 4.4 19:01:20 10° NNW 19:05:29 48° W 19:09:37 10° SSW
COSMOS 2455 4.0 19:00:21 10° S 19:03:35 27° SSE 19:03:35 27° SSE
Resurs 1-3 4.4 19:11:28 10° S 19:15:36 48° W 19:19:47 10° NNW
Cosmos 1538 Rocket 4.0 19:10:26 10° NNW 19:15:45 81° WSW 19:16:57 54° S
Cosmos 2227 Rocket 3.0 19:10:56 10° NW 19:16:22 49° WSW 19:21:44 10° S
COSMO-SKYMED 1 3.7 19:15:35 32° NW 19:16:38 38° WNW 19:20:27 10° SW
Meteor 2-2 Rocket 4.4 19:15:37 10° SSW 19:21:15 68° W 19:23:30 37° N
H-2A R/B 3.8 19:27:25 10° SW 19:29:33 23° S 19:29:33 23° S
Cosmos 1898 Rocket 4.5 19:38:55 10° SW 19:43:31 43° WNW 19:43:31 43° WNW
BREEZE-M DEB (TANK) 4.4 20:03:22 10° WNW 20:08:42 86° SSW 20:09:11 82° SSE
